Terug naar catalogus

SL-6 R/B(2)

ActiefHEO
NORAD 10089·ROCKET BODY·🇷🇺 Russia

Gelanceerd Jun 16, 1977 vanaf Plesetsk Cosmodrome

Loading…

Volgende Passages (komende 24 uur)

TLE

VersSource: Space-Track

Epoch: Sep 14, 2026, 02:46 UTC

1 10089U 77047D   26257.11530632  .00000428  00000-0  00000+0 0  9999
2 10089  66.9953  90.7706 5702577 300.1795  15.4734  1.99305914262224

Volg SL-6 R/B(2) in realtime met AllMySat

Download on the App Store